Weather History for Mobile, AL

Change the Weather History Date:

Thursday, April 25, 2013

  Actual Average Record
Temperature  
Mean Temperature 65 °F 69 °F  
Max Temperature 76 °F 80 °F 88 °F (1989)
Min Temperature 54 °F 58 °F 39 °F (1910)
Degree Days  
Heating Degree Days 0 1  
Month to date heating degree days 60 57  
Since 1 July heating degree days 1546 1688  
Cooling Degree Days 0 5  
Month to date cooling degree days 63 77  
Year to date cooling degree days 107 132  
Growing Degree Days 14 (Base 50)    
Moisture  
Dew Point 51 °F    
Average Humidity 65    
Maximum Humidity 93    
Minimum Humidity 37    
Precipitation  
Precipitation 0.00 in 0.15 in 5.34 in (1881)
Month to date precipitation 5.10 4.03  
Year to date precipitation 20.08 20.94  
Sea Level Pressure  
Sea Level Pressure 30.25 in    
Wind  
Wind Speed 9 mph (NNE)    
Max Wind Speed 16 mph    
Max Gust Speed 20 mph    
Visibility 9 miles    
Events      
T = Trace of Precipitation, MM = Missing Value Source: NWS Daily Summary

Daily Weather History Graph

Daily Weather History Graph

Search for Another Location

Airport:

Trip Planner

Search our weather history database for the weather conditions in past years. The results will help you decide how hot, cold, wet, or windy it might be!

Date:

Astronomy

Apr. 25, 2013 Rise Set
Actual Time 6:14 AM CDT 7:27 PM CDT
Civil Twilight 5:49 AM CDT 7:52 PM CDT
Nautical Twilight 5:19 AM CDT 8:22 PM CDT
Astronomical Twilight 4:48 AM CDT 8:54 PM CDT
Moon 7:38 PM CDT (4/25) 5:57 AM CDT (4/25)
Length of Visible Light 14h 03m
Length of Day
13h 13m
Full, 100% of the Moon is Illuminated
Apr 25
Full
Apr 25
Full
May 2
Last Quarter
May 9
New
May 17
First Quarter

Hourly Weather History & Observations

Time (CDT) Temp. Dew Point Humidity Pressure Visibility Wind Dir Wind Speed Gust Speed Precip Events Conditions
12:56 AM 57.9 °F 55.9 °F 93% 30.17 in 10.0 mi North 10.4 mph - N/A   Overcast
1:56 AM 55.9 °F 54.0 °F 93% 30.17 in 10.0 mi North 6.9 mph - N/A   Overcast
2:56 AM 55.0 °F 52.0 °F 89% 30.18 in 10.0 mi North 11.5 mph - N/A   Overcast
3:56 AM 55.0 °F 52.0 °F 89% 30.19 in 10.0 mi North 8.1 mph - N/A   Overcast
4:56 AM 54.0 °F 51.1 °F 90% 30.20 in 10.0 mi North 10.4 mph - N/A   Overcast
5:56 AM 54.0 °F 51.1 °F 90% 30.21 in 5.0 mi North 12.7 mph - N/A   Overcast
6:56 AM 54.0 °F 51.1 °F 90% 30.23 in 4.0 mi NNE 13.8 mph - N/A   Overcast
7:56 AM 55.0 °F 51.1 °F 86% 30.26 in 4.0 mi North 11.5 mph - N/A   Overcast
8:56 AM 55.9 °F 51.1 °F 84% 30.28 in 7.0 mi North 11.5 mph - N/A   Overcast
9:56 AM 57.0 °F 50.0 °F 77% 30.30 in 7.0 mi North 11.5 mph - N/A   Overcast
10:07 AM 59.0 °F 51.8 °F 77% 30.30 in 7.0 mi NNE 8.1 mph - N/A   Overcast
10:56 AM 63.0 °F 53.1 °F 70% 30.29 in 10.0 mi North 6.9 mph - N/A   Scattered Clouds
11:56 AM 68.0 °F 55.0 °F 63% 30.29 in 10.0 mi North 10.4 mph - N/A   Scattered Clouds
12:56 PM 71.1 °F 55.0 °F 57% 30.28 in 10.0 mi North 9.2 mph - N/A   Scattered Clouds
1:56 PM 73.0 °F 55.0 °F 53% 30.27 in 10.0 mi Variable 3.5 mph - N/A   Scattered Clouds
2:56 PM 75.0 °F 55.0 °F 50% 30.26 in 10.0 mi North 9.2 mph - N/A   Scattered Clouds
3:56 PM 75.0 °F 54.0 °F 48% 30.24 in 10.0 mi NE 9.2 mph - N/A   Scattered Clouds
4:56 PM 75.0 °F 53.1 °F 46% 30.24 in 10.0 mi NNE 11.5 mph 17.3 mph N/A   Scattered Clouds
5:56 PM 73.0 °F 50.0 °F 44% 30.24 in 10.0 mi NNE 9.2 mph - N/A   Partly Cloudy
6:56 PM 69.8 °F 42.8 °F 38% 30.25 in 10.0 mi NNE 10.4 mph - N/A   Partly Cloudy
7:56 PM 64.9 °F 46.0 °F 50% 30.25 in 10.0 mi NNE 3.5 mph - N/A   Partly Cloudy
8:56 PM 63.0 °F 46.0 °F 54% 30.26 in 10.0 mi NNE 5.8 mph - N/A   Clear
9:56 PM 61.0 °F 45.0 °F 56% 30.28 in 10.0 mi NNE 4.6 mph - N/A   Partly Cloudy
10:56 PM 60.1 °F 44.1 °F 55% 30.28 in 10.0 mi NNE 6.9 mph - N/A   Clear
11:56 PM 57.9 °F 44.1 °F 60% 30.28 in 10.0 mi NNE 5.8 mph - N/A   Clear